#timestamp,LO_Frequency,Hit,StdDev 
1642518015.8,286047000.6,N
1642518035.6,286047002.6,N
1642518055.5,286047000.6,N
1642518075.3,286047001.7,N
1642518095.1,286047004.2,Y
1642518115.9,286047001.6,P
1642518135.7,286047000.3,N
1642518155.6,286047002.2,P
1642518175.4,286047000.1,N
1642518195.2,286047001.5,N
1642518215.1,286047004.1,Y
1642518216.0,286047004.1,P
1642518235.8,286047002.7,N
1642518255.6,286047002.6,N
1642518275.5,286046999.3,N
1642518295.3,286047000.5,N
1642518315.2,286047002.7,N
1642518335.9,286047002.3,N
1642518355.7,286046999.8,N
1642518375.6,286047002.7,N
1642518395.4,286046999.9,N
1642518415.2,286047000.0,N
1642518435.1,286047002.3,N
1642518436.0,286047002.3,N
1642518455.8,286047003.6,N
1642518475.7,286047001.7,N
1642518495.5,286047003.5,N
1642518515.3,286047005.0,Y
1642518535.2,286047005.7,P
1642518555.0,286047005.3,N
1642518555.9,286047005.3,P
1642518575.7,286047000.3,N
1642518595.6,286047002.8,N
1642518615.4,286047002.2,N
1642518635.3,286047003.9,N
1642518655.1,286047003.2,N
1642518656.0,286047003.2,N
1642518675.8,286047001.9,N
1642518695.7,286047001.6,N
1642518715.5,286047003.4,N
1642518735.4,286047001.3,N
1642518755.2,286047000.6,N
1642518775.0,286047000.8,N
1642518775.9,286047000.8,N
1642518795.8,286046998.5,N
1642518815.6,286046999.8,N
1642518835.4,286046998.1,N
1642518855.3,286046996.6,N
1642518875.1,286046998.6,N
1642518895.9,286046996.9,N
1642518915.7,286046999.0,N
1642518935.5,286046999.6,N
1642518955.4,286046997.4,N
1642518975.2,286046996.7,N
1642518995.1,286046993.4,N
1642518996.0,286046993.4,N
1642519015.8,286046992.6,N
1642519035.6,286046990.3,N
1642519055.5,286046990.9,N
1642519075.3,286046991.3,N
1642519095.1,286046990.5,N
1642519115.9,286046994.8,N
1642519135.7,286046992.8,N
1642519155.6,286046991.6,N
1642519175.4,286046988.9,N
1642519195.2,286046988.5,N
1642519215.1,286046989.2,N
1642519216.0,286046989.2,N
1642519235.8,286046988.8,N
1642519255.6,286046990.0,N
1642519275.5,286046987.3,N
1642519295.3,286046988.2,N
1642519315.2,286046989.8,N
1642519335.9,286046988.8,N
1642519355.7,286046988.5,N
1642519375.6,286046992.3,N
1642519395.4,286046992.3,N
1642519415.2,286046994.6,N
1642519435.1,286046994.3,N
1642519436.0,286046994.3,N
1642519455.8,286046994.4,N
1642519475.7,286046997.8,N
1642519495.5,286046995.2,N
1642519515.3,286046996.4,N
1642519535.2,286046997.7,N
1642519555.0,286046993.5,N
1642519555.9,286046993.5,N
1642519575.7,286046995.3,N
1642519595.6,286047011.9,Y
1642519615.4,286047001.5,P
1642519635.3,286047001.4,N
1642519655.1,286047002.7,N
1642519675.8,286047001.7,N
1642519695.7,286047004.1,N
1642519715.5,286046999.7,N
1642519735.3,286046999.8,N
1642519755.2,286047003.6,N
1642519775.0,286047007.1,N
1642519775.9,286047007.1,N
1642519795.8,286047005.4,N
1642519815.6,286047007.5,N
1642519835.4,286047007.6,N
1642519855.3,286047004.6,N
1642519875.1,286047007.4,N
1642519895.9,286047007.1,N
1642519915.7,286047007.6,N
1642519935.5,286047005.7,N
1642519955.4,286047005.3,N
1642519975.2,286047004.2,N
1642519995.0,286047001.3,N
1642519995.9,286047001.3,N
1642520015.8,286047003.2,N
1642520035.6,286047005.3,N
1642520055.5,286047003.7,N
1642520075.3,286047002.2,N
1642520095.1,286047003.8,N
1642520115.9,286047007.2,N
1642520135.7,286047005.0,N
1642520155.5,286047006.8,N
1642520175.4,286047005.7,N
1642520195.2,286047005.7,N
1642520215.1,286047003.7,N
1642520216.0,286047003.7,N
1642520235.8,286047003.7,N
1642520255.6,286047003.5,N
1642520275.5,286047005.5,N
1642520295.3,286047003.1,N
1642520315.1,286047004.1,N
1642520335.9,286047006.0,Y
1642520355.7,286047002.6,P
1642520375.6,286047004.2,P
1642520395.4,286047004.0,P
1642520415.2,286046999.8,N
1642520435.1,286047001.8,N
1642520436.0,286047001.8,N
1642520455.8,286047002.1,N
1642520475.6,286047001.3,N
1642520495.5,286047002.2,N
1642520515.3,286047000.2,N
1642520535.2,286046999.9,N
1642520555.9,286046999.9,N
1642520575.7,286047002.4,N
1642520595.6,286047002.3,N
1642520615.4,286047004.4,N
1642520635.2,286047001.4,N
1642520655.1,286047001.3,N
1642520656.0,286047001.3,N
1642520675.8,286047004.0,N
1642520695.7,286047002.9,N
1642520715.5,286047003.0,N
1642520735.3,286047002.9,N
1642520755.2,286047007.5,Y
1642520775.0,286047002.0,P
1642520775.9,286047002.0,P
1642520795.8,286046999.8,N
1642520815.6,286047003.6,Y
1642520835.4,286047004.1,P
1642520855.3,286046999.8,N
1642520875.1,286047001.0,N
1642520895.8,286046998.9,N
1642520915.7,286046998.1,N
1642520935.5,286046999.4,N
1642520955.4,286046998.6,N
1642520975.2,286046998.4,N
1642520995.0,286046999.4,N
1642520995.9,286046999.4,N
1642521015.8,286046996.9,N
1642521035.6,286046997.1,N
1642521055.4,286046998.7,N
1642521075.3,286047011.9,Y
1642521095.1,286047002.7,P
1642521115.9,286047001.1,N
1642521135.7,286047001.1,N
1642521155.5,286047001.1,N
1642521175.4,286046998.8,N
1642521195.2,286046998.1,N
1642521215.0,286046999.3,N
1642521215.9,286046999.3,N
1642521235.8,286047000.2,N
1642521255.6,286046999.8,N
1642521275.5,286047004.3,Y
1642521295.3,286047001.1,P
1642521315.1,286047001.0,N
1642521335.9,286046998.2,P
1642521355.7,286046997.0,N
1642521375.6,286046999.6,N
1642521395.4,286046999.3,N
1642521415.2,286047000.1,N
1642521435.1,286047001.2,N
1642521436.0,286047001.2,N
1642521455.8,286046998.1,N
1642521475.6,286046998.1,N
1642521495.5,286047000.9,N
1642521515.3,286047001.1,N
1642521535.2,286046999.7,N
1642521555.9,286047000.1,N
1642521575.7,286047000.7,N
1642521595.6,286047000.7,N
